612 
ASUS46 KSEW 271010
RWRWA 

WASHINGTON REGIONAL WEATHER ROUNDUP
NATIONAL WEATHER SERVICE SEATTLE WA
300 AM PDT FRI MAR 27 2015

NOTE:"FAIR" INDICATES FEW OR NO CLOUDS BELOW 12,000 FEET WITH NO 
SIGNIFICANT WEATHER AND/OR OBSTRUCTIONS TO VISIBILITY.

WAZ505-507>509-271100-
SEATTLE, TACOMA, EVERETT, AND VICINITY
  
CITY           SKY/WX    TMP DP  RH WIND       PRES   REMARKS
EVERETT        CLEAR     50  47  89 CALM      30.09F                  
BOEING FIELD   CLEAR     54  47  77 CALM      30.08F                  
RENTON         CLEAR     51  47  86 CALM      30.08F                  
SEATAC AIRPORT PTCLDY    52  48  86 NE6       30.09F                  
JBLM-MCCHORD   FOG       44  44 100 CALM      30.07F VSB 1            
PUYALLUP       FAIR      45  45 100 CALM      30.08F                  
BREMERTON      CLEAR     45  43  93 CALM      30.11F                  
JBLM-FT LEWIS  CLEAR     46  46 100 S3        30.07F                  
TACOMA NARROWS CLEAR     50  47  89 NW3       30.09F                  
$$
 
WAZ001-503-506-510-514-515-271100-
NORTH INTERIOR
  
CITY           SKY/WX    TMP DP  RH WIND       PRES   REMARKS
BELLINGHAM     FOG       46  44  93 CALM      30.08F VSB 1/4          
FRIDAY HARBOR  PTCLDY    46  46 100 CALM      30.09F                  
EASTSOUND      PTCLDY    48  48 100 CALM      30.07F                  
PORT ANGELES   PTCLDY    48  45  89 SW6       30.08F                  
NAS WHIDBEY    PTCLDY    48  45  89 E3        30.09F                  
ARLINGTON      CLOUDY    43  39  87 CALM      30.10F VSB 1/4          
BURLINGTON       N/A     48  48 100 MISG        N/A                   
$$
 
WAZ020-022-039-040-504-511-512-271100-
SOUTHWEST INTERIOR
  
CITY           SKY/WX    TMP DP  RH WIND       PRES   REMARKS
SHELTON        CLEAR     43  42  97 CALM      30.07F                  
OLYMPIA        FOG       45  45 100 CALM      30.08F VSB 1/2          
CHEHALIS       FOG       46  46 100 CALM      30.08F VSB 1/4          
KELSO          CLEAR     45  43  93 CALM      30.11F                  
VANCOUVER      CLEAR     46  44  93 CALM      30.07F                  
SCAPPOOSE, OR  CLEAR     47  45  93 CALM      30.07F                  
PORTLAND, OR   CLEAR     50  49  96 W3        30.08F                  
$$
 
WAZ021-516-517-271100-
WASHINGTON COAST
  
CITY           SKY/WX    TMP DP  RH WIND       PRES   REMARKS
FORKS          PTCLDY    46  46 100 CALM      30.07F                  
HOQUIAM        CLEAR     48  47  96 NE5       30.06F FOG              
ASTORIA, OR    PTCLDY    45  43  93 E3        30.05F FOG              
$$
 
WAZ019-023-024-040-518-519-271100-
CASCADE MOUNTAINS AND COLUMBIA GORGE
  
CITY           SKY/WX    TMP DP  RH WIND       PRES   REMARKS
TROUTDALE, OR  CLEAR     49  45  86 CALM      30.06F                  
THE DALLES, OR CLEAR     49  47  93 E5        30.10F                  
$$

WAZ026-027-041>044-520-521-271100-
EAST SLOPES
  
CITY           SKY/WX    TMP DP  RH WIND       PRES   REMARKS
OMAK           PTCLDY    42  39  89 W6        30.15F                  
WENATCHEE      CLEAR     52  44  74 W10       30.13F                  
ELLENSBURG     CLEAR     45  41  86 E6        30.13F                  
YAKIMA         CLEAR     45  41  86 W6        30.12F                  
$$

WAZ028-034-035-271100-
COLUMBIA BASIN
  
CITY           SKY/WX    TMP DP  RH WIND       PRES   REMARKS
EPHRATA        CLEAR     49  46  90 N8        30.12F                  
MOSES LAKE     CLEAR     45  43  93 N8        30.13F                  
PASCO          CLEAR     46  44  93 NW3       30.11F                  
HERMISTON, OR  CLEAR     47  44  90 S3        30.09F                  
$$

WAZ036>038-271100-
NORTHEAST WASHINGTON
  
CITY           SKY/WX    TMP DP  RH WIND       PRES   REMARKS
SPOKANE GEIGER PTCLDY    46  44  93 NE8       30.16F                  
SPOKANE FELTS  CLEAR     43  41  93 CALM      30.18S                  
FAIRCHILD AFB  CLEAR     44  44 100 NE7       30.16S                  
COEURDALENE,ID CLEAR     41  39  93 E7        30.19S                  
DEER PARK      CLEAR     43  42  97 N5        30.18S                  
$$

WAZ029>033-271100-
SOUTHEAST WASHINGTON
  
CITY           SKY/WX    TMP DP  RH WIND       PRES   REMARKS
PULLMAN        CLEAR     49  43  80 E12       30.17F                  
LEWISTON, ID   CLEAR     52  46  80 E9        30.15F                  
WALLA WALLA    CLEAR     53  46  77 SE7       30.10F                  
PENDLETON, OR  CLEAR     51  44  77 CALM      30.09F                  
$$